Aeroporto :
LOGIN :

Iscrizione | Disclaimer

   EN    FR    IT 

 










Sommario :    VFR   VFR Marginale   IFR   IFR Intensivo   IFR Molto Intensivo
Visibilità : 
Base nubi : 
>= 8 km
>= 3000ft
5 / 8 km
1000 / 3000 ft
1500m / 5 km
500 / 1000 ft
800 / 1500m
200 / 500 ft
< 800m
< 200 ft
Simboli :   Temporali  Nebbia  Neve Forte  Precipitazioni Forti  Vento > 20 kt
SIGMETs :   Varie  Temporali  Ghiacco  Turbolenza  Onda orograficha  Ceneri Vulcaniche






- Altitudine del aeroporto : 433 ft


LFOC - Chateaudun

ULTIMO METAR :
  • 250330Z AUTO 25003KT 8000 NSC 08/08 Q1021

METARs OBSOLETI :
  • 250300Z AUTO 26002KT CAVOK 09/08 Q1021
  • 250230Z AUTO 25002KT 9000 NSC 09/08 Q1021
  • 250200Z AUTO 25004KT CAVOK 09/08 Q1022
  • 250130Z AUTO 24002KT CAVOK 09/09 Q1022
  • 250100Z AUTO 28002KT CAVOK 10/08 Q1022

TAF TAF LFOC
Valido dal 24 a 15 ore il 25 a 15 ore UTC


241400Z 2415/2515 28010KT CAVOK



MetMap, La meteo Aeronautica in un colpo d'occhio ! - Copyright ORBIFLY Dicembre 2007 - Disclaimer

ORBIFLY MET'MAP TEAM :

Programmazione e sviluppo : Alexandra Zaïnal
Concezione : Baudouin d'Aumeries
Aiuto per la programmazione : Marc-Olivier Méhu
Supporto tecnico e logistico : Manuel Goepfert
Aiuto per la traduzione : Arnaldo La Scala

Contatto : metmap@orbifly.com




FONTI E CREDITI :

   NOAA